Rechercher aéroport 
image banner adimage banner adimage banner ad
image banner ad

22CL - Double Tree Farm

Situé à Marysville, United States

ICAO - 22CL, IATA -

Données fournies par Airmate  

Information générale

Coordonnées: N39°17'60" W121°21'34"
Élévation : 550 feet MSL.
Variation magnétique : 16° East
Voir autres Aéroports à California

Données opérationnelles

Special qualification required
Heure actuelle UTC:
Heure actuelle locale:
Météo à : KBAB - Beale Afb ( 19 km )
METAR: KBAB 231458Z AUTO 00000KT 9SM CLR 17/09 A2993 RMK AO2 SLP138 T01740093 52007 $
TAF: TAF KBAB 231100Z 2311/2417 32006KT 9999 SKC QNH2992INS BECMG 2316/2317 32010G15KT 9999 SKC QNH2978INS BECMG 2401/2402 34006KT 9999 SKC QNH2978INS BECMG 2410/2411 VRB06KT 9999 SKC QNH2981INS TX36/2323Z TN13/2314Z
Voir NOTAMs / SUP AIP / TFR affectant cet aéroport [VIEW]
Fréquences de communication: [VIEW]

Pistes:

Identifiant RWYQFULongueur (ft)Largeur (ft)SurfaceLDA (ft)
13160020GRAVEL
31160020GRAVEL

Coordonnées de l'aéroport

Adresse: Marysville United States

Vue satellite de 22CL